Satellite-Ground Cal/Val Region Overpasses Predictions

Prediction of Satellite NPP Overpassing Cal/Val Region: PacNW

Region Location: (Latitude: 10.00, Longitude: 139.50) to (Latitude: 22.70, Longitude: 165.60).

Table of predicted overpasses for the next 14.0 days since TLE Epoch: 3/4/2023
Interval Starting Time Starting Location Ending Time Ending Location
1 03/04/2023 03:19:01 ( 10.03, 150.46) 03/04/2023 03:22:36 ( 22.65, 147.45)
2 03/04/2023 15:50:54 ( 22.69, 147.72) 03/04/2023 15:54:30 ( 10.01, 144.70)
3 03/05/2023 03:00:00 ( 10.00, 155.22) 03/05/2023 03:03:36 ( 22.68, 152.20)
4 03/05/2023 15:31:55 ( 22.66, 152.47) 03/05/2023 15:35:30 ( 10.04, 149.46)
5 03/06/2023 02:41:01 ( 10.04, 159.97) 03/06/2023 02:44:36 ( 22.66, 156.96)
6 03/06/2023 15:12:54 ( 22.69, 157.22) 03/06/2023 15:16:30 ( 10.01, 154.20)
7 03/07/2023 02:22:00 ( 10.01, 164.73) 03/07/2023 02:25:36 ( 22.69, 161.70)
8 03/07/2023 14:53:55 ( 22.65, 161.97) 03/07/2023 14:57:30 ( 10.03, 158.96)
9 03/08/2023 03:44:31 ( 10.05, 144.10) 03/08/2023 03:48:06 ( 22.67, 141.09)
10 03/08/2023 14:36:13 ( 18.04, 165.59) 03/08/2023 14:38:29 ( 10.05, 163.72)
11 03/08/2023 16:16:24 ( 22.67, 141.35) 03/08/2023 16:18:34 ( 15.05, 139.50)
12 03/09/2023 03:25:30 ( 10.03, 148.86) 03/09/2023 03:29:05 ( 22.65, 145.85)
13 03/09/2023 15:57:24 ( 22.69, 146.11) 03/09/2023 16:01:00 ( 10.01, 143.09)
14 03/10/2023 03:06:30 ( 10.01, 153.62) 03/10/2023 03:10:06 ( 22.69, 150.59)
15 03/10/2023 15:38:25 ( 22.65, 150.86) 03/10/2023 15:42:00 ( 10.03, 147.85)
16 03/11/2023 02:47:30 ( 10.05, 158.36) 03/11/2023 02:51:05 ( 22.67, 155.35)
17 03/11/2023 15:19:24 ( 22.66, 155.61) 03/11/2023 15:22:59 ( 10.04, 152.60)
18 03/12/2023 02:28:30 ( 10.04, 163.12) 03/12/2023 02:32:05 ( 22.66, 160.11)
19 03/12/2023 15:00:24 ( 22.67, 160.37) 03/12/2023 15:03:59 ( 10.06, 157.36)
20 03/13/2023 02:12:14 ( 19.72, 165.59) 03/13/2023 02:13:04 ( 22.65, 164.86)
21 03/13/2023 03:50:59 ( 10.03, 142.50) 03/13/2023 03:54:33 ( 22.59, 139.50)
22 03/13/2023 14:41:23 ( 22.68, 165.13) 03/13/2023 14:44:59 ( 10.01, 162.10)
23 03/13/2023 16:22:53 ( 22.68, 139.75) 03/13/2023 16:23:10 ( 21.69, 139.50)
24 03/14/2023 03:31:59 ( 10.02, 147.26) 03/14/2023 03:35:35 ( 22.70, 144.23)
25 03/14/2023 16:03:53 ( 22.69, 144.51) 03/14/2023 16:07:29 ( 10.01, 141.49)
26 03/15/2023 03:12:58 ( 10.01, 152.01) 03/15/2023 03:16:34 ( 22.69, 148.99)
27 03/15/2023 15:44:52 ( 22.70, 149.27) 03/15/2023 15:48:28 ( 10.02, 146.24)
28 03/16/2023 02:53:58 ( 10.01, 156.77) 03/16/2023 02:57:34 ( 22.69, 153.74)
29 03/16/2023 15:25:52 ( 22.70, 154.02) 03/16/2023 15:29:28 ( 10.02, 151.00)
30 03/17/2023 02:34:58 ( 10.01, 161.52) 03/17/2023 02:38:34 ( 22.69, 158.50)
